Regional Weather Roundup
Issued by NWS Upton, NY

Home | Current Version | Previous Version | Text Only | Print | Product List | Glossary On
Versions: 1 2 3 4 5 6 7 8 9 10 11 12 13 14 15 16 17 18 19 20 21 22 23 24 25 26 27 28 29 30 31 32 33 34 35 36 37 38 39 40 41 42 43 44 45 46 47 48 49 50
085
ASUS41 KOKX 201709
RWROKX

REGIONAL WEATHER ROUNDUP
NATIONAL WEATHER SERVICE NEW YORK NY
100 PM EDT WED SEP 20 2017

NOTE: "FAIR" INDICATES FEW OR NO CLOUDS BELOW 12,000 FEET WITH NO
SIGNIFICANT WEATHER AND/OR OBSTRUCTIONS TO VISIBILITY.

NYZ071-072-176-178-NJZ106-104-201800-
NEW YORK CITY METRO AREA

CITY           SKY/WX    TMP DP  RH WIND       PRES   REMARKS
Central Park   CLOUDY    78  64  61 N8G22     29.91R
Bronx Bot Gard   N/A     75  63  64 NW15      29.89R
LaGuardia APRT CLOUDY    77  66  68 N17G25    29.87R
Kennedy INTL   CLOUDY    81  66  60 N23       29.86S
Breezy Point     N/A     75 N/A N/A N17G28      N/A
Newark/Liberty PTSUNNY   80  64  58 N23G29    29.88S
Teterboro      PTSUNNY   79  65  62 N14G25    29.88S
$$

NYZ177-179-078>081-201800-
LONG ISLAND NEW YORK

CITY           SKY/WX    TMP DP  RH WIND       PRES   REMARKS
Jones Beach      N/A     77 N/A N/A N28         N/A
Matinecock PT    N/A     75 N/A N/A N18         N/A
Farmingdale    CLOUDY    78  66  66 N17G28    29.85R
MacArthur/ISP  CLOUDY    76  67  73 N17G29    29.83R
Shirley        CLOUDY    76  68  76 N17G30    29.82S
Mt Sinai Harb    N/A    N/A N/A N/A N16         N/A
Westhampton    CLOUDY    75  65  70 N14G25    29.81R
East Hampton   CLOUDY    72  67  83 N20G28    29.77F
Montauk          N/A     72  68  87 N14G25    29.77S
$$

NYZ052-065-067-201800-
HUDSON VALLEY

CITY           SKY/WX    TMP DP  RH WIND       PRES   REMARKS
White Plains   CLOUDY    78  65  63 N20G26    29.88S
Larchmont Harb   N/A     75 N/A N/A NW14        N/A
Croton On Huds   N/A     79 N/A N/A N7G15       N/A
Newburgh       PTSUNNY   75  66  73 N17G29    29.95
Montgomery     CLOUDY    76  64  66 NE18      29.93S
Poughkeepsie   CLOUDY    76  64  66 N9        29.91F
Albany         PTSUNNY   77  63  61 N13       29.97F
$$

NJZ001-105-106-008-010-013-015-019>022-104-201800-
NEW JERSEY

CITY           SKY/WX    TMP DP  RH WIND       PRES   REMARKS
Newark/Liberty PTSUNNY   80  64  58 N23G29    29.88S
Teterboro      PTSUNNY   79  65  62 N14G25    29.88S
Caldwell       CLOUDY    77  67  71 NE8       29.91R
Somerville     NOT AVBL
Linden         FAIR      79  63  57 NE15G22   29.89R
Perth Amboy      N/A     77 N/A N/A N16G22      N/A
Sussex         CLOUDY    78  67  68 VRB7      29.93S
Andover          N/A     75  65  70 VRB3      29.94S
Trenton        CLOUDY    79  66  64 N9        29.90S
Millville      MOSUNNY   83  69  62 NW13      29.89S
Atlantic City  MOSUNNY   81  68  64 N16       29.87S
Wrightstown    CLOUDY    79  67  66 N14       29.86S HAZE
Toms River     PTSUNNY   78  67  68 N14       29.88R
Belmar         PTSUNNY   79  66  64 NW17G24   29.88R
$$

PAZ047>061-062-071-201800-
EASTERN PENNSYLVANIA

CITY           SKY/WX    TMP DP  RH WIND       PRES   REMARKS
Philadelphia   MOSUNNY   83  65  54 N13G20    29.90S
Allentown      SUNNY     83  65  54 NE10      29.92F
Scranton       SUNNY     82  60  47 N10       29.98F
$$

CTZ002-004>006-009-010-012-RIZ004-006-007-MAZ004-011-015-201800-
SOUTHERN NEW ENGLAND
 IN CT

CITY           SKY/WX    TMP DP  RH WIND       PRES   REMARKS
Bradley INTL   CLOUDY    75  65  70 N16G24    29.90R
Hartford       CLOUDY    74  66  76 N13       29.87S
Danbury        CLOUDY    76  65  68 N10       29.91S
Wtrbury/Oxford CLOUDY    73  65  75 N17G23    29.90R
Norwalk Harbor   N/A     75 N/A N/A N16G23      N/A
Bridgeport     CLOUDY    77  65  66 N21G31    29.85R
Meriden        CLOUDY    73  65  75 N15G23    29.87R
New Haven      CLOUDY    76  65  68 N21G30    29.84R
Chester        CLOUDY    75  66  73 N13G23    29.84S
Groton         CLOUDY    74  67  78 N21G33    29.78R
Wilimantic     CLOUDY    73  68  84 N13       29.85S

 IN RI

CITY           SKY/WX    TMP DP  RH WIND       PRES   REMARKS
Providence     DRIZZLE   70  68  93 N25G33    29.81F FOG
Block Island   CLOUDY    70  67  90 N24G32    29.74F
Westerly       CLOUDY    73  68  84 N15G29    29.78F
 IN MA

CITY           SKY/WX    TMP DP  RH WIND       PRES   REMARKS
Boston         LGT RAIN  67  66  97 N23G33    29.87F FOG
Worcester      LGT RAIN  66  64  93 N16G24    29.91F VSB 1
Westfield      CLOUDY    76  66  71 N18       29.91R
Provincetown   FOG       64  63  96 NE24      29.79F VSB 1
Nantucket      LGT RAIN  67  67 100 NE26G39   29.66F FOG
$$

ANZ330-335-338-340-345-350-353-355-201800-
COASTAL MARINE OBSERVATIONS


STATION/POSITION TIME  SKY/WX   TEMP    WIND        PRES    VSBY  WAVE
                                AIR SEA DIR/SP/G                  HT/PER
                 (UTC)          (F)     (DEG/KT/KT) (MB)    (MI)  (FT/S)
NY HARB ENTRANCE 1550            74 71  350/ 16/ 19 1009.5          7/10
20 S FIRE ISLAND 1550            71 67  350/ 21/ 25 1008.7         10/11
GREAT SOUTH BAY  1630            74 72  360/ 16/ 21   N/A
23 SSW MONTAUK P 1550            69 67              1006.6         10/12
15 E BARNEGAT LI 1630               69                N/A           9/11
HUDSON CANYON    1550            70 68  350/ 27/ 33 1005.2         13/ 9
KINGS POINT      1630            75 71   40/ 17/ 20 1012.1
EXECUTION ROCKS  1645            76      20/ 16/ 19   N/A
WESTERN LI SOUND NOT AVBL
CENTRAL LI SOUND NOT AVBL
EASTERN LI SOUND NOT AVBL
ROBBINS REEF     1630            76     360/ 23/ 27 1012.0
$$


>>>>>>>>>>>>>>>>>>>>>>>>>>>> KEY <<<<<<<<<<<<<<<<<<<<<<<<<<<
>                                                          <
>     SKY/WX - Sky Condition/Present Weather               <
>     TMP    - Temperature in Fahrenheit                   <
>     DP     - Dew Point in Fahrenheit                     <
>     RH     - Relative Humidity in Percent                <
>     WIND   - Direction (from) and Speed in MPH           <
>     PRES   - Mean Sea Level Pressure (inches of Hg)      <
>     WCI    - Wind Chill Index                            <
>     VSB    - VISIBILITY IN MILES                         <
>     HX     - HEAT INDEX                                  <
>     TC     - TEMPERATURE IN CELSIUS                      <
>     VRB    - VARIABLE WIND DIRECTION                     <
>                                                          <
>>>>>>>>>>>>>>>>>>>>>>>>>>>> KEY <<<<<<<<<<<<<<<<<<<<<<<<<<<




USA.gov is the U.S. government's official web portal to all federal, state and local government web resources and services.